This demonstration page uses our WeatherBlox Daily Observations layout. Learn more.

39.08367, -84.50855

Hourly Observations for January 17, 2020

Temp ( °F °C ) Dew Point ( °F °C ) Humidity (%) Winds ( mph kmh ) Pressure ( in mb ) Visibility ( mi km ) Precip ( " mm )
12:22 am 00:22 Partly Cloudy 27 -2.8 17 -8.3 66 66 N 13 20 30.77 1042 10 16.0934 0 0
12:53 am 00:53 Clear 26 -3.3 17 -8.3 69 69 N 9 15 30.76 1042 10 16.0934 0 0
1:53 am 01:53 Clear 24 -4.4 16 -8.9 71 71 N 7 11 30.77 1042 10 16.0934 0 0
2:53 am 02:53 Partly Cloudy 25 -3.9 16 -8.9 69 69 NNE 9 15 30.78 1042 10 16.0934 0 0
3:53 am 03:53 Mostly Cloudy 24 -4.4 15 -9.4 68 68 NNE 9 15 30.79 1043 10 16.0934 0 0
4:53 am 04:53 Cloudy 25 -3.9 16 -8.9 69 69 NE 8 13 30.8 1043 10 16.0934 0 0
5:53 am 05:53 Cloudy 24 -4.4 16 -8.9 71 71 NE 8 13 30.8 1043 10 16.0934 0 0
6:53 am 06:53 Cloudy 25 -3.9 16 -8.9 69 69 NE 7 11 30.82 1044 10 16.0934 0 0
7:53 am 07:53 Partly Cloudy 25 -3.9 16 -8.9 69 69 NE 7 11 30.82 1044 10 16.0934 0 0
8:53 am 08:53 Sunny 26 -3.3 17 -8.3 69 69 NE 9 15 30.82 1044 10 16.0934 0 0
9:53 am 09:53 Sunny 27 -2.8 16 -8.9 63 63 E 9 15 30.81 1043 10 16.0934 0 0
10:53 am 10:53 Sunny 29 -1.7 17 -8.3 61 61 VRB 7 11 30.81 1043 10 16.0934 0 0
11:53 am 11:53 Sunny 31 -0.6 17 -8.3 56 56 ENE 13 20 30.76 1042 10 16.0934 0 0
12:53 pm 12:53 Sunny 33 0.6 17 -8.3 52 52 VRB 6 9 30.71 1040 10 16.0934 0 0
1:53 pm 13:53 Sunny 34 1.1 16 -8.9 48 48 E 7 11 30.68 1039 10 16.0934 0 0
2:53 pm 14:53 Sunny 35 1.7 17 -8.3 48 48 E 6 9 30.66 1038 10 16.0934 0 0
3:53 pm 15:53 Mostly Sunny 35 1.7 16 -8.9 46 46 ESE 3 6 30.65 1038 10 16.0934 0 0
4:53 pm 16:53 Cloudy 35 1.7 17 -8.3 48 48 ESE 5 7 30.6 1036 10 16.0934 0 0
5:53 pm 17:53 Mostly Cloudy 35 1.7 17 -8.3 48 48 VRB 5 7 30.58 1036 10 16.0934 0 0
6:53 pm 18:53 Mostly Cloudy 35 1.7 17 -8.3 48 48 E 6 9 30.56 1035 10 16.0934 0 0
7:53 pm 19:53 Partly Cloudy 35 1.7 18 -7.8 50 50 ENE 8 13 30.53 1034 10 16.0934 0 0
8:53 pm 20:53 Mostly Cloudy 35 1.7 17 -8.3 48 48 E 7 11 30.49 1032 10 16.0934 0 0
9:53 pm 21:53 Cloudy 35 1.7 17 -8.3 48 48 ENE 13 20 30.42 1030 10 16.0934 0 0
10:53 pm 22:53 Cloudy 35 1.7 19 -7.2 52 52 E 7 11 30.4 1029 10 16.0934 0.001 0.001
11:53 pm 23:53 Cloudy 35 1.7 19 -7.2 52 52 SE 5 7 30.35 1028 10 16.0934 0 0

Powered by AerisWeather